Вернуться в каталог

PRAETORIAN SDA_616

АктивенВоенныеPO
NORAD 65579·PAYLOAD·🇺🇸 United States

Запущен Sep 10, 2025 с Vandenberg Space Force Base

Loading…

Ближайшие Пролёты (ближайшие 24 часа)

TLE

СвежийSource: Space-Track

Эпоха: Sep 13, 2026, 19:21 UTC

1 65579U 25203Q   26256.80676907  .00000104  00000-0  84455-4 0  9993
2 65579  81.3040 289.1699 0004868 332.2824  27.8072 13.83274946 50934

Отслеживайте PRAETORIAN SDA_616 в реальном времени с AllMySat

Download on the App Store